Weather History for Akron, CO

Change the Weather History Date:

Sunday, February 17, 2013

  Actual Average Record
Temperature  
Mean Temperature 45 °F 32 °F  
Max Temperature 63 °F 44 °F 73 °F (1970)
Min Temperature 26 °F 20 °F -16 °F (1942)
Degree Days  
Heating Degree Days 20    
Month to date heating degree days 527  
Cooling Degree Days 0    
Month to date cooling degree days 0  
Moisture  
Dew Point 7 °F    
Average Humidity 34    
Maximum Humidity 63    
Minimum Humidity 4    
Precipitation  
Precipitation 0.00 in 0.02 in 0.17 in (1942)
Month to date precipitation 0.01 0.24  
Year to date precipitation 0.04 0.54  
Sea Level Pressure  
Sea Level Pressure 29.70 in    
Wind  
Wind Speed 14 mph (WSW)    
Max Wind Speed 33 mph    
Max Gust Speed 41 mph    
Visibility 10 miles    
Events      
T = Trace of Precipitation, MM = Missing Value Source: NWS Daily Summary

Daily Weather History Graph

Daily Weather History Graph

Search for Another Location

Airport:

Trip Planner

Search our weather history database for the weather conditions in past years. The results will help you decide how hot, cold, wet, or windy it might be!

Date:

Astronomy

Feb. 17, 2013 Rise Set
Actual Time 6:42 AM MST 5:31 PM MST
Civil Twilight 6:15 AM MST 5:58 PM MST
Nautical Twilight 5:43 AM MST 6:30 PM MST
Astronomical Twilight 5:12 AM MST 7:02 PM MST
Moon 10:37 AM MST (2/17) 12:29 AM MST (2/17)
Length of Visible Light 11h 43m
Length of Day
10h 48m
Waxing Crescent, 49% of the Moon is Illuminated
Feb 17
Waxing Crescent
Feb 17
First Quarter
Feb 25
Full
Mar 4
Last Quarter
Mar 11
New

Hourly Weather History & Observations

Time (MST) Temp. Windchill Dew Point Humidity Pressure Visibility Wind Dir Wind Speed Gust Speed Precip Events Conditions
12:53 AM 32.0 °F 23.6 °F 16.0 °F 52% 29.92 in 10.0 mi South 10.4 mph - N/A   Clear
1:53 AM 30.9 °F 22.2 °F 16.0 °F 54% 29.90 in 10.0 mi SSW 10.4 mph - N/A   Clear
2:53 AM 33.1 °F 23.4 °F 12.0 °F 42% 29.86 in 10.0 mi SW 13.8 mph - N/A   Clear
3:53 AM 33.1 °F 22.6 °F 10.9 °F 40% 29.83 in 10.0 mi SW 16.1 mph - N/A   Clear
5:53 AM 34.0 °F 25.5 °F 10.0 °F 37% 29.84 in 10.0 mi SSW 11.5 mph - N/A   Clear
6:53 AM 34.0 °F 25.5 °F 10.0 °F 37% 29.83 in 10.0 mi SSW 11.5 mph - N/A   Clear
7:53 AM 37.9 °F 28.9 °F 8.1 °F 29% 29.77 in 10.0 mi SW 16.1 mph - N/A   Clear
8:53 AM 42.1 °F 35.2 °F 7.0 °F 24% 29.78 in 10.0 mi SW 12.7 mph - N/A   Clear
9:53 AM 46.9 °F - 6.1 °F 19% 29.76 in 10.0 mi SSW 13.8 mph - N/A   Clear
10:53 AM 54.0 °F - 1.9 °F 12% 29.68 in 10.0 mi SW 12.7 mph - N/A   Clear
11:53 AM 57.9 °F - -7.1 °F 7% 29.63 in 10.0 mi South 12.7 mph - N/A   Clear
12:53 PM 61.0 °F - -9.0 °F 6% 29.57 in 10.0 mi South 16.1 mph - N/A   Clear
1:53 PM 62.1 °F - -14.1 °F 4% 29.53 in 10.0 mi SW 11.5 mph 19.6 mph N/A   Clear
2:53 PM 62.1 °F - -9.9 °F 5% 29.49 in 10.0 mi WSW 5.8 mph - N/A   Clear
3:53 PM 60.1 °F - -9.9 °F 6% 29.48 in 10.0 mi West 9.2 mph - N/A   Clear
4:53 PM 50.0 °F - 12.0 °F 22% 29.51 in 10.0 mi NNW 13.8 mph - N/A   Clear
5:53 PM 46.9 °F - 8.1 °F 21% 29.56 in 10.0 mi North 26.5 mph 35.7 mph N/A   Clear
7:53 PM 42.1 °F 31.7 °F 14.0 °F 32% 29.61 in 10.0 mi NNW 27.6 mph 35.7 mph N/A   Clear
8:53 PM 37.9 °F 25.7 °F 21.9 °F 53% 29.65 in 10.0 mi North 29.9 mph 35.7 mph N/A   Clear
10:53 PM 30.0 °F 17.9 °F 19.9 °F 66% 29.71 in 10.0 mi North 18.4 mph - N/A   Clear
11:53 PM 27.0 °F 14.7 °F 19.0 °F 72% 29.72 in 10.0 mi NNW 16.1 mph - N/A   Clear